Location: Peterborough
(44.3091°N, 78.3197°W)
Time: 05:46:39
(UTC-04:00)

A-11 Canister half - Pass Details

Date: 25 March 2023
Orbit: 1513 x 1686 km, 47.2° (Epoch: 04 June)

Event Time Altitude Azimuth Distance (km) Brightness Sun altitude
Rises 20:55:33 0° 201° (SSW) 4,760 11.6 -15.5°
Reaches altitude 10° 20:58:59 10° 192° (SSW) 3,804 11.0 -16.1°
Maximum altitude 21:07:17 33° 133° (SE) 2,492 9.6 -17.5°
Enters shadow 21:12:24 21° 89° (E) 3,101 10.0 -18.3°
